Location: USNO
(38.9242°N, 77.0663°W)
Time: 15:56:56
(UTC-04:00)

Envisat - Pass Details

Date: 11 October 2017
Orbit: 764 x 766 km, 98.2° (Epoch: 20 October)

Event Time Altitude Azimuth Distance (km) Brightness Sun altitude
Exits shadow 20:30:43 42° 43° (NE) 1,089 3.5 -23.2°
Drops below altitude 10° 20:34:41 10° 360° (N) 2,309 5.6 -24.0°
Sets 20:37:04 0° 354° (N) 3,239 6.4 -24.4°
